Regional Weather Roundup
Issued by NWS

Home | Current Version | Previous Version | Graphics & Text | Print | Product List | Glossary On
Versions: 1 2 3 4 5 6 7 8 9 10 11 12 13 14 15 16 17 18 19 20 21 22 23 24 25 26 27 28 29 30 31 32 33 34 35 36 37 38 39 40 41 42 43 44 45 46 47 48 49 50
000
ASUS45 KPSR 242110
RWRAZ

ARIZONA HOURLY REGIONAL WEATHER ROUNDUP
NATIONAL WEATHER SERVICE PHOENIX AZ
200 PM MST FRI FEB 24 2017

NOTE: FAIR INDICATES FEW OR NO CLOUDS BELOW 12,000 FEET WITH NO
SIGNIFICANT WEATHER AND/OR OBSTRUCTIONS TO VISIBILITY.

AZZ001>003-036-242200-
NORTHWEST ARIZONA

CITY           SKY/WX    TMP DP  RH WIND       PRES   REMARKS
BULLHEAD CITY  SUNNY     59  14  17 NW14      30.14F
KINGMAN        SUNNY     48 -17   6 VRB3      30.11F
$$

AZZ004>008-015-016-018-242200-
NORTH CENTRAL ARIZONA

CITY           SKY/WX    TMP DP  RH WIND       PRES   REMARKS
GRAND CANYON   SUNNY     33   5  30 W13G20    30.02F WCI  24
WILLIAMS       SUNNY     36   5  27 W8G20     30.03F WCI  29
PRESCOTT       SUNNY     44   7  21 VRB3      30.06F
FLAGSTAFF      SUNNY     36   3  25 W12G17    30.00F WCI  28
PAYSON         SUNNY     45  12  26 SW10G20   30.08F
PAGE           SUNNY     43 -10  10 NW13G25   30.01F
$$

AZZ009>014-017-242200-
NORTHEAST ARIZONA

CITY           SKY/WX    TMP DP  RH WIND       PRES   REMARKS
WINSLOW        SUNNY     47   3  16 VRB6      30.01F
SAINT JOHNS    SUNNY     44   1  16 NW14G22   30.00F
WINDOW ROCK    SUNNY     37  -4  17 W20G35    29.97F WCI  27
SHOW LOW       SUNNY     39   9  28 SW15G24   30.01F WCI  31
$$

AZZ023-242200-
GREATER PHOENIX AREA

CITY           SKY/WX    TMP DP  RH WIND       PRES   REMARKS
PHOENIX        MOSUNNY   61  17  18 SW8       30.09F
BUCKEYE        SUNNY     59  16  18 CALM      30.11F
GLENDALE       PTSUNNY   61  21  21 CALM      30.11F
LUKE AFB       SUNNY     61  23  23 VRB5      30.08F
DEER VALLEY    SUNNY     58  17  20 VRB5      30.09F
SCOTTSDALE     SUNNY     59  17  19 SW7       30.10F
MESA-FALCON    MOSUNNY  N/A N/A N/A VRB5      30.07F
MESA-GATEWAY   SUNNY     57  19  23 CALM      30.10F
CHANDLER       SUNNY     61  19  20 SE6       30.10F
$$

AZZ027-028-242200-
SOUTHWEST MARICOPA COUNTY AND PINAL COUNTY

CITY           SKY/WX    TMP DP  RH WIND       PRES   REMARKS
CASA GRANDE    NOT AVBL
$$

AZZ503-504-507>509-242200-
SOUTHEAST ARIZONA

CITY           SKY/WX    TMP DP  RH WIND       PRES   REMARKS
TUCSON         SUNNY     60  17  18 VRB3      30.10F
DAVIS-MONTHAN  SUNNY     58  18  20 NW7       30.09F
RYAN FIELD     SUNNY     59  18  20 N9G16     30.11F
NOGALES        SUNNY     59  13  16 VRB3      30.07F
SIERRA VISTA   SUNNY     59  12  16 W13G22    30.07F
DOUGLAS        SUNNY     59  10  14 VRB7      30.05F
SAFFORD        SUNNY     58  13  17 NW16G25   30.03F
$$

AZZ020-021-025-026-031-242200-
SOUTHWEST ARIZONA

CITY           SKY/WX    TMP DP  RH WIND       PRES   REMARKS
YUMA           MOSUNNY   64  21  19 NW3       30.13F
$$

CAZ031-033-041-043-047-048-061-242200-
SOUTHERN CALIFORNIA

CITY           SKY/WX    TMP DP  RH WIND       PRES   REMARKS
DOWNTOWN L.A.  SUNNY     63  26  24 CALM      30.14F
L.A. AIRPORT   MOSUNNY   59  34  39 W14       30.15F
SAN DIEGO      PTSUNNY   62  39  42 NW10      30.17F
BURBANK        SUNNY     60  21  22 S6        30.13F
ONTARIO        PTSUNNY   58  25  28 S7        30.13F
RIVERSIDE      SUNNY     60  23  24 CALM      30.13F
PALM SPRINGS   SUNNY     63  32  31 CALM      30.14F
EL CENTRO NAS  MOSUNNY   63  22  20 SW3       30.15F
IMPERIAL       SUNNY     63  30  28 CALM      30.13F
BLYTHE         SUNNY     60  19  20 N7        30.14F
NEEDLES        SUNNY     61  10  13 CALM      30.13F
$$

NVZ020-UTZ003-242200-
SOUTHERN NEVADA-UTAH

CITY           SKY/WX    TMP DP  RH WIND       PRES   REMARKS
LAS VEGAS      MOSUNNY   52   8  17 NW9       30.12F
SALT LAKE CITY PTSUNNY   31  14  49 NW9       30.09F WCI  23
$$

NMZ009-TXZ055-242200-
NEW MEXICO-WEST TEXAS

CITY           SKY/WX    TMP DP  RH WIND       PRES   REMARKS
ALBUQUERQUE    MOSUNNY   46  -3  13 W20G31    29.93F
EL PASO        SUNNY     61   2   9 W25G32    29.96S
$$


........................KEY........................
SKY/WX - SKY CONDITION/WEATHER
TMP    - TEMPERATURE IN FAHRENHEIT
DP     - DEW POINT IN FAHRENHEIT
RH     - RELATIVE HUMIDITY IN PERCENT
WIND   - DIRECTION AND SPEED IN MILES PER HOUR (MPH)
VRB    - VARIABLE WIND DIRECTION
PRES   - MEAN SEA LEVEL PRESSURE IN INCHES OF MERCURY
         F - FALLING PRESSURE   R - RISING PRESSURE
         S - STEADY PRESSURE
VSB    - VISIBILITY IN MILES
HX     - HEAT INDEX IN FAHRENHEIT
WCI    - WIND CHILL INDEX IN FAHRENHEIT
TC     - TEMPERATURE IN CELSIUS WHICH IS ALSO KNOWN AS
         TEMPERATURE IN CENTIGRADE
AFB    - AIR FORCE BASE
         LUKE AFB IS LUKE AIR FORCE BASE
         DAVIS-MONTHAN IS DAVIS-MONTHAN AIR FORCE BASE
NAS    - NAVAL AIR STATION
         EL CENTRO NAS IS EL CENTRO NAVAL AIR STATION
N/A    - NOT AVAILABLE




USA.gov is the U.S. government's official web portal to all federal, state and local government web resources and services.